Location: Bouillancy
(49.1149°N, 2.9308°E)
Time: 22:53:42
(UTC+00:00)

Lacrosse 5 rocket - Pass Details

Date: 30 September 2020
Orbit: 460 x 636 km, 57.0° (Epoch: 25 October)

Event Time Altitude Azimuth Distance (km) Brightness Sun altitude
Rises 20:16:44 0° 301° (WNW) 2,841 6.3 -27.4°
Reaches altitude 10° 20:19:05 10° 293° (WNW) 1,960 5.1 -27.7°
Enters shadow 20:22:33 35° 247° (WSW) 1,006 2.8 -28.2°
